This is the latest recevied weather packets stored in our database for station/object N4WFF. If no packets are shown the sender has not sent any weather packets the latest 10 day(s).
| Time | Temp. | Humidity | Pressure | Rain* | Wind** | Luminosity | Snow |
|---|---|---|---|---|---|---|---|
| 1777919756 | 25° C | 39% | 1016.3 hPa | 0 mm | - | 969 W/m² | - |
| 1777919457 | 25° C | 38% | 1016.3 hPa | 0 mm | - | 972 W/m² | - |
| 1777919155 | 24.44° C | 38% | 1016.3 hPa | 0 mm | - | 977 W/m² | - |
| 1777918855 | 25° C | 38% | 1016.4 hPa | 0 mm | - | 987 W/m² | - |
| 1777918555 | 25° C | 39% | 1016.5 hPa | 0 mm | - | 988 W/m² | - |
| 1777918256 | 25° C | 37% | 1016.6 hPa | 0 mm | - | 958 W/m² | - |
| 1777917955 | 24.44° C | 39% | 1016.7 hPa | 0 mm | - | 989 W/m² | - |
| 1777917656 | 24.44° C | 39% | 1016.7 hPa | 0 mm | - | 986 W/m² | - |
| 1777917356 | 24.44° C | 38% | 1016.8 hPa | 0 mm | - | 990 W/m² | - |
| 1777917055 | 24.44° C | 39% | 1016.8 hPa | 0 mm | - | 985 W/m² | - |
| 1777916755 | 24.44° C | 38% | 1016.9 hPa | 0 mm | - | 988 W/m² | - |
| 1777916456 | 24.44° C | 39% | 1017 hPa | 0 mm | - | 989 W/m² | - |
| 1777916155 | 24.44° C | 37% | 1017.1 hPa | 0 mm | - | 991 W/m² | - |
| 1777915856 | 24.44° C | 39% | 1017.1 hPa | 0 mm | - | 982 W/m² | - |
| 1777915556 | 24.44° C | 40% | 1017.1 hPa | 0 mm | - | 982 W/m² | - |
| 1777914966 | 24.44° C | 40% | 1017.3 hPa | 0 mm | - | 976 W/m² | - |
| 1777914656 | 24.44° C | 45% | 1017.4 hPa | 0 mm | - | 972 W/m² | - |
| 1777914356 | 23.89° C | 41% | 1017.4 hPa | 0 mm | - | 968 W/m² | - |
| 1777914056 | 23.89° C | 44% | 1017.5 hPa | 0 mm | - | 963 W/m² | - |
| 1777913756 | 23.89° C | 43% | 1017.6 hPa | 0 mm | - | 961 W/m² | - |
| 1777913456 | 23.89° C | 43% | 1017.6 hPa | 0 mm | - | 956 W/m² | - |
| 1777913156 | 23.89° C | 43% | 1017.6 hPa | 0 mm | - | 948 W/m² | - |
| 1777912855 | 23.89° C | 42% | 1017.7 hPa | 0 mm | - | 941 W/m² | - |
| 1777912556 | 23.89° C | 43% | 1018 hPa | 0 mm | - | 931 W/m² | - |
| 1777912256 | 23.89° C | 43% | 1018 hPa | 0 mm | - | 924 W/m² | - |
* Rain latest hour (hover to see other rain measurements)
** Current wind speed in m/s (hover to see current wind gust speed)